Location: Demmingen
(48.6757°N, 10.4375°E)
Time: 21:07:25
(UTC+00:00)

Cosmos 1953 - Pass Details

Date: 23 May 2024
Orbit: 509 x 531 km, 82.5° (Epoch: 23 June)

Event Time Altitude Azimuth Distance (km) Brightness Sun altitude
Rises 00:59:30 0° 346° (NNW) 2,687 6.7 -16.9°
Reaches altitude 10° 01:01:42 10° 341° (NNW) 1,789 5.6 -16.7°
Maximum altitude 01:05:31 51° 265° (W) 668 2.5 -16.4°
Enters shadow 01:06:48 35° 211° (SSW) 872 2.8 -16.3°
